UAL1214 KEWR-KSFO

Flight info

Callsign UAL1214
Flight time 5h 33m
Altitude 36000
Route ZIMMZ Q42 LEWRP PWE/N0483F380 MCK VOAXA Q136 RUMPS OAL INYOE DYAMD5
Aircraft B77W/H-SDE1E2E3FGHIJ2J3J4J5M1RWXY/LB1D1

Departure

Time 2026-04-20 00:00
Airport Newark Liberty International Airport (KEWR)

Arrival

Time 2026-04-20 05:34
Airport San Francisco International Airport (KSFO)
Time Latitude Longitude Altitude Speed Heading
2026-04-19 23:22 40.69925 -74.17954 20 ft 0 kts 184°
2026-04-19 23:44 40.69927 -74.17953 20 ft 1 kts 184°
2026-04-19 23:45 40.69942 -74.17951 20 ft 2 kts 184°
2026-04-19 23:45 40.69957 -74.17950 20 ft 2 kts 184°
2026-04-19 23:45 40.69972 -74.17949 20 ft 2 kts 183°
2026-04-19 23:45 40.69986 -74.17952 20 ft 2 kts 148°
2026-04-19 23:46 40.69997 -74.17965 20 ft 2 kts 117°
2026-04-19 23:46 40.70001 -74.17983 20 ft 2 kts 91°
2026-04-19 23:46 40.70001 -74.18003 20 ft 2 kts 91°
2026-04-19 23:46 40.70001 -74.18017 20 ft 0 kts 94°
2026-04-19 23:47 40.70001 -74.18018 20 ft 0 kts 94°
2026-04-19 23:49 40.70000 -74.17999 20 ft 4 kts 94°
2026-04-19 23:49 40.69995 -74.17924 20 ft 11 kts 95°
2026-04-19 23:49 40.69986 -74.17796 20 ft 16 kts 95°
2026-04-19 23:50 40.69943 -74.17657 20 ft 16 kts 141°
2026-04-19 23:50 40.69899 -74.17526 20 ft 17 kts 101°
2026-04-19 23:50 40.69854 -74.17368 20 ft 19 kts 122°
2026-04-19 23:50 40.69758 -74.17232 20 ft 21 kts 140°
2026-04-19 23:51 40.69637 -74.17133 20 ft 19 kts 154°
2026-04-19 23:51 40.69511 -74.17084 20 ft 18 kts 168°
2026-04-19 23:51 40.69379 -74.17077 20 ft 19 kts 188°
2026-04-19 23:51 40.69248 -74.17143 20 ft 20 kts 206°
2026-04-19 23:52 40.69118 -74.17227 20 ft 20 kts 205°
2026-04-19 23:52 40.68999 -74.17302 20 ft 18 kts 206°
2026-04-19 23:52 40.68883 -74.17374 20 ft 17 kts 206°
2026-04-19 23:52 40.68779 -74.17442 20 ft 15 kts 206°
2026-04-19 23:53 40.68683 -74.17503 20 ft 14 kts 206°
2026-04-19 23:53 40.68595 -74.17557 20 ft 13 kts 205°
2026-04-19 23:53 40.68515 -74.17608 20 ft 12 kts 206°
2026-04-19 23:53 40.68441 -74.17654 20 ft 11 kts 206°
2026-04-19 23:54 40.68369 -74.17700 20 ft 12 kts 206°
2026-04-19 23:54 40.68288 -74.17751 20 ft 13 kts 206°
2026-04-19 23:54 40.68205 -74.17805 21 ft 13 kts 206°
2026-04-19 23:54 40.68120 -74.17859 21 ft 13 kts 206°
2026-04-19 23:55 40.68033 -74.17913 21 ft 13 kts 205°
2026-04-19 23:55 40.67946 -74.17966 21 ft 14 kts 205°
2026-04-19 23:55 40.67856 -74.18025 21 ft 14 kts 206°
2026-04-19 23:55 40.67767 -74.18082 21 ft 14 kts 205°
2026-04-19 23:56 40.67692 -74.18128 21 ft 7 kts 199°
2026-04-19 23:56 40.67642 -74.18108 21 ft 7 kts 137°
2026-04-19 23:56 40.67619 -74.18072 21 ft 0 kts 130°
2026-04-19 23:57 40.67617 -74.18069 21 ft 3 kts 130°
2026-04-19 23:58 40.67582 -74.18013 22 ft 10 kts 126°
2026-04-19 23:58 40.67574 -74.17936 22 ft 8 kts 53°
2026-04-19 23:58 40.67608 -74.17904 22 ft 1 kts 26°
2026-04-19 23:59 40.67693 -74.17851 22 ft 40 kts 25°
2026-04-19 23:59 40.68176 -74.17545 21 ft 111 kts 26°
2026-04-20 00:00 40.69067 -74.16971 78 ft 163 kts 23°
2026-04-20 00:00 40.70117 -74.16296 659 ft 175 kts 22°
2026-04-20 00:00 40.71179 -74.15594 1487 ft 172 kts 21°
2026-04-20 00:00 40.72300 -74.14854 1770 ft 188 kts 21°
2026-04-20 00:01 40.73526 -74.14048 2017 ft 206 kts 21°
2026-04-20 00:01 40.74826 -74.13192 2343 ft 224 kts 21°
2026-04-20 00:01 40.77496 -74.11942 3028 ft 242 kts 353°
2026-04-20 00:02 40.79021 -74.12654 3732 ft 237 kts 321°
2026-04-20 00:02 40.79960 -74.14255 4504 ft 235 kts 293°
2026-04-20 00:02 40.80370 -74.16370 5296 ft 235 kts 282°
2026-04-20 00:02 40.80595 -74.18490 6059 ft 235 kts 280°
2026-04-20 00:03 40.80681 -74.20638 6815 ft 235 kts 274°
2026-04-20 00:03 40.80684 -74.22758 7458 ft 237 kts 272°
2026-04-20 00:03 40.80683 -74.24941 8154 ft 238 kts 272°
2026-04-20 00:03 40.80682 -74.27110 8778 ft 240 kts 272°
2026-04-20 00:04 40.80680 -74.29346 9413 ft 243 kts 271°
2026-04-20 00:04 40.80679 -74.31529 10087 ft 242 kts 271°
2026-04-20 00:04 40.80676 -74.33822 10444 ft 255 kts 270°
2026-04-20 00:04 40.80673 -74.36215 10640 ft 272 kts 270°
2026-04-20 00:05 40.80669 -74.38811 10821 ft 290 kts 270°
2026-04-20 00:05 40.80663 -74.41553 11025 ft 307 kts 270°
2026-04-20 00:05 40.80657 -74.44440 11265 ft 322 kts 270°
2026-04-20 00:05 40.80650 -74.47461 11674 ft 332 kts 269°
2026-04-20 00:06 40.80643 -74.50397 12408 ft 332 kts 269°
2026-04-20 00:06 40.80633 -74.53477 13148 ft 335 kts 269°
2026-04-20 00:06 40.80624 -74.56441 13819 ft 339 kts 268°
2026-04-20 00:06 40.80614 -74.59634 14651 ft 341 kts 268°
2026-04-20 00:07 40.80603 -74.62740 15521 ft 342 kts 266°
2026-04-20 00:07 40.80590 -74.65918 16358 ft 343 kts 265°
2026-04-20 00:07 40.80577 -74.69037 17250 ft 343 kts 264°
2026-04-20 00:07 40.80564 -74.72092 18114 ft 343 kts 263°
2026-04-20 00:08 40.80550 -74.75192 18968 ft 344 kts 262°
2026-04-20 00:08 40.80532 -74.78349 19705 ft 347 kts 263°
2026-04-20 00:08 40.80514 -74.81526 20477 ft 350 kts 262°
2026-04-20 00:08 40.80495 -74.84737 21154 ft 353 kts 262°
2026-04-20 00:09 40.80480 -74.87070 21624 ft 357 kts 262°
2026-04-20 00:09 40.80458 -74.90650 22464 ft 358 kts 261°
2026-04-20 00:09 40.80436 -74.93950 23103 ft 361 kts 261°
2026-04-20 00:09 40.80413 -74.97279 23679 ft 365 kts 261°
2026-04-20 00:10 40.80389 -75.00677 24265 ft 367 kts 261°
2026-04-20 00:10 40.80366 -75.04037 24826 ft 369 kts 261°
2026-04-20 00:10 40.80341 -75.07405 25392 ft 371 kts 262°
2026-04-20 00:10 40.80320 -75.10144 25804 ft 372 kts 260°
2026-04-20 00:11 40.80106 -75.13541 26230 ft 371 kts 255°
2026-04-20 00:11 40.79639 -75.16939 26663 ft 375 kts 253°
2026-04-20 00:11 40.79181 -75.20105 27218 ft 375 kts 253°
2026-04-20 00:11 40.78688 -75.23506 27848 ft 375 kts 253°
2026-04-20 00:12 40.78200 -75.26862 28398 ft 377 kts 253°
2026-04-20 00:12 40.77707 -75.30241 28898 ft 379 kts 252°
2026-04-20 00:12 40.77219 -75.33573 29327 ft 383 kts 253°
2026-04-20 00:12 40.76619 -75.37019 29849 ft 381 kts 248°
2026-04-20 00:13 40.75734 -75.40327 30347 ft 380 kts 244°
2026-04-20 00:13 40.74631 -75.43422 30890 ft 378 kts 241°
2026-04-20 00:13 40.73463 -75.46549 31455 ft 377 kts 242°
2026-04-20 00:13 40.72312 -75.49629 31929 ft 377 kts 243°
2026-04-20 00:14 40.71149 -75.52739 32386 ft 377 kts 243°
2026-04-20 00:14 40.69999 -75.55814 32691 ft 379 kts 242°
2026-04-20 00:14 40.68826 -75.58946 32985 ft 382 kts 242°
2026-04-20 00:14 40.67657 -75.62061 33321 ft 383 kts 242°
2026-04-20 00:15 40.66465 -75.65240 33753 ft 383 kts 243°
2026-04-20 00:15 40.65277 -75.68401 34150 ft 385 kts 242°
2026-04-20 00:15 40.64114 -75.71495 34563 ft 385 kts 243°
2026-04-20 00:15 40.63393 -75.73411 34751 ft 386 kts 243°
2026-04-20 00:16 40.63020 -75.74405 34823 ft 387 kts 242°
2026-04-20 00:16 40.61400 -75.78704 35168 ft 391 kts 242°
2026-04-20 00:16 40.59918 -75.82629 35436 ft 396 kts 243°
2026-04-20 00:16 40.58332 -75.86813 35759 ft 400 kts 242°
2026-04-20 00:17 40.57086 -75.90090 36058 ft 402 kts 243°
2026-04-20 00:17 40.54574 -75.96693 36087 ft 403 kts 243°
2026-04-20 00:18 40.52065 -76.03272 36103 ft 405 kts 242°
2026-04-20 00:18 40.49546 -76.09862 36084 ft 402 kts 242°
2026-04-20 00:19 40.47034 -76.16422 36099 ft 402 kts 242°
2026-04-20 00:19 40.44527 -76.22952 36103 ft 403 kts 243°
2026-04-20 00:20 40.41970 -76.29597 36087 ft 402 kts 243°
2026-04-20 00:20 40.39416 -76.36223 36087 ft 402 kts 243°
2026-04-20 00:21 40.36884 -76.42774 36081 ft 403 kts 243°
2026-04-20 00:21 40.34522 -76.49454 36075 ft 403 kts 250°
2026-04-20 00:22 40.33207 -76.56654 36081 ft 404 kts 257°
2026-04-20 00:22 40.32148 -76.63848 36087 ft 406 kts 257°
2026-04-20 00:23 40.31065 -76.71110 36093 ft 406 kts 256°
2026-04-20 00:23 40.29966 -76.78410 36103 ft 406 kts 256°
2026-04-20 00:24 40.28856 -76.85735 36098 ft 407 kts 257°
2026-04-20 00:24 40.27737 -76.93072 36102 ft 407 kts 256°
2026-04-20 00:25 40.26625 -77.00330 36113 ft 407 kts 257°
2026-04-20 00:25 40.25500 -77.07650 36119 ft 405 kts 256°
2026-04-20 00:26 40.24371 -77.14951 36110 ft 404 kts 256°
2026-04-20 00:26 40.23244 -77.22209 36108 ft 405 kts 257°
2026-04-20 00:27 40.22116 -77.29439 36110 ft 405 kts 256°
2026-04-20 00:27 40.20973 -77.36739 36100 ft 405 kts 257°
2026-04-20 00:28 40.19822 -77.44055 36088 ft 403 kts 257°
2026-04-20 00:28 40.18673 -77.51327 36093 ft 404 kts 257°
2026-04-20 00:29 40.17526 -77.58559 36085 ft 403 kts 257°
2026-04-20 00:29 40.16374 -77.65784 36091 ft 405 kts 257°
2026-04-20 00:30 40.15235 -77.72903 36122 ft 404 kts 256°
2026-04-20 00:30 40.14090 -77.80034 36109 ft 401 kts 256°
2026-04-20 00:31 40.13520 -77.87345 36104 ft 405 kts 267°
2026-04-20 00:31 40.13625 -77.94674 36122 ft 407 kts 267°
2026-04-20 00:32 40.13720 -78.02073 36099 ft 406 kts 267°
2026-04-20 00:32 40.13803 -78.09543 36092 ft 408 kts 267°
2026-04-20 00:33 40.13877 -78.16965 36098 ft 409 kts 266°
2026-04-20 00:33 40.13944 -78.24383 36091 ft 405 kts 267°
2026-04-20 00:34 40.14005 -78.31808 36093 ft 412 kts 267°
2026-04-20 00:34 40.14062 -78.39327 36103 ft 409 kts 267°
2026-04-20 00:35 40.14114 -78.46819 36104 ft 410 kts 267°
2026-04-20 00:35 40.14160 -78.54279 36095 ft 410 kts 267°
2026-04-20 00:36 40.14202 -78.61778 36080 ft 410 kts 267°
2026-04-20 00:36 40.14239 -78.69254 36093 ft 411 kts 267°
2026-04-20 00:37 40.14271 -78.76721 36078 ft 411 kts 267°
2026-04-20 00:37 40.14297 -78.83567 36075 ft 411 kts 267°
2026-04-20 00:38 40.14313 -78.88757 36067 ft 412 kts 267°
2026-04-20 00:38 40.14332 -78.96050 36079 ft 413 kts 266°
2026-04-20 00:39 40.14348 -79.03564 36066 ft 413 kts 266°
2026-04-20 00:39 40.14357 -79.10942 36068 ft 411 kts 267°
2026-04-20 00:40 40.14398 -79.18319 36086 ft 413 kts 269°
2026-04-20 00:40 40.14582 -79.25349 36082 ft 414 kts 269°
2026-04-20 00:41 40.14762 -79.32604 36095 ft 413 kts 269°
2026-04-20 00:41 40.14939 -79.40132 36092 ft 415 kts 269°
2026-04-20 00:42 40.15111 -79.47707 36097 ft 412 kts 269°
2026-04-20 00:42 40.15273 -79.55203 36085 ft 413 kts 269°
2026-04-20 00:43 40.15432 -79.62814 36110 ft 416 kts 269°
2026-04-20 00:43 40.15585 -79.70320 36119 ft 415 kts 269°
2026-04-20 00:44 40.15733 -79.77879 36126 ft 415 kts 269°
2026-04-20 00:44 40.15875 -79.85397 36116 ft 414 kts 269°
2026-04-20 00:45 40.16013 -79.92929 36110 ft 415 kts 269°
2026-04-20 00:45 40.16148 -80.00568 36115 ft 415 kts 269°
2026-04-20 00:46 40.16275 -80.08109 36125 ft 414 kts 269°
2026-04-20 00:46 40.16398 -80.15625 36128 ft 413 kts 269°
2026-04-20 00:47 40.16517 -80.23196 36130 ft 416 kts 269°
2026-04-20 00:47 40.16631 -80.30771 36130 ft 414 kts 269°
2026-04-20 00:48 40.16739 -80.38290 36127 ft 414 kts 269°
2026-04-20 00:48 40.16842 -80.45844 36127 ft 415 kts 269°
2026-04-20 00:49 40.16942 -80.53455 36125 ft 416 kts 269°
2026-04-20 00:49 40.17036 -80.61005 36134 ft 414 kts 269°
2026-04-20 00:50 40.17125 -80.68585 36136 ft 415 kts 269°
2026-04-20 00:50 40.17209 -80.76144 36149 ft 414 kts 269°
2026-04-20 00:51 40.17288 -80.83693 36134 ft 415 kts 269°
2026-04-20 00:51 40.17362 -80.91260 36138 ft 414 kts 269°
2026-04-20 00:52 40.17424 -80.98821 36126 ft 414 kts 268°
2026-04-20 00:52 40.17349 -81.06359 36124 ft 414 kts 268°
2026-04-20 00:53 40.17268 -81.13773 36122 ft 412 kts 268°
2026-04-20 00:53 40.17185 -81.21331 36123 ft 412 kts 268°
2026-04-20 00:54 40.17100 -81.28838 36123 ft 413 kts 268°
2026-04-20 00:54 40.17011 -81.36327 36119 ft 413 kts 268°
2026-04-20 00:55 40.16917 -81.43883 36124 ft 413 kts 268°
2026-04-20 00:55 40.16817 -81.51517 36125 ft 414 kts 268°
2026-04-20 00:56 40.16713 -81.59153 36129 ft 416 kts 268°
2026-04-20 00:56 40.16740 -81.66839 36137 ft 414 kts 271°
2026-04-20 00:57 40.17041 -81.74464 36145 ft 416 kts 271°
2026-04-20 00:57 40.17314 -81.81995 36131 ft 416 kts 271°
2026-04-20 00:58 40.17575 -81.89591 36151 ft 418 kts 271°
2026-04-20 00:58 40.17827 -81.97239 36136 ft 417 kts 271°
2026-04-20 00:59 40.18072 -82.04907 36138 ft 417 kts 271°
2026-04-20 00:59 40.18310 -82.12554 36140 ft 417 kts 271°
2026-04-20 01:00 40.18541 -82.20154 36136 ft 417 kts 271°
2026-04-20 01:00 40.18765 -82.27688 36131 ft 418 kts 271°
2026-04-20 01:01 40.18985 -82.35278 36138 ft 416 kts 271°
2026-04-20 01:01 40.19200 -82.42862 36121 ft 418 kts 271°
2026-04-20 01:02 40.19412 -82.50531 36136 ft 417 kts 271°
2026-04-20 01:02 40.19618 -82.58134 36164 ft 418 kts 271°
2026-04-20 01:03 40.19817 -82.65693 36143 ft 417 kts 271°
2026-04-20 01:03 40.20013 -82.73300 36170 ft 416 kts 271°
2026-04-20 01:04 40.20203 -82.80874 36158 ft 418 kts 271°
2026-04-20 01:04 40.20388 -82.88453 36175 ft 417 kts 271°
2026-04-20 01:05 40.20570 -82.96121 36175 ft 418 kts 271°
2026-04-20 01:05 40.20746 -83.03713 36152 ft 417 kts 271°
2026-04-20 01:06 40.20902 -83.10693 36162 ft 418 kts 271°
2026-04-20 01:06 40.21068 -83.18280 36158 ft 418 kts 271°
2026-04-20 01:07 40.21231 -83.25952 36185 ft 419 kts 271°
2026-04-20 01:07 40.21383 -83.33359 36158 ft 418 kts 271°
2026-04-20 01:08 40.21516 -83.40015 36164 ft 419 kts 271°
2026-04-20 01:08 40.21653 -83.47139 36161 ft 418 kts 272°
2026-04-20 01:09 40.21795 -83.54708 36151 ft 418 kts 272°
2026-04-20 01:09 40.21934 -83.62399 36141 ft 418 kts 271°
2026-04-20 01:10 40.22067 -83.70076 36155 ft 420 kts 271°
2026-04-20 01:10 40.22255 -83.81435 36171 ft 420 kts 271°
2026-04-20 01:11 40.22375 -83.89066 36166 ft 420 kts 271°
2026-04-20 01:11 40.22492 -83.96741 36165 ft 418 kts 271°
2026-04-20 01:12 40.22601 -84.04364 36175 ft 421 kts 272°
2026-04-20 01:12 40.22707 -84.12011 36187 ft 421 kts 271°
2026-04-20 01:13 40.22809 -84.19762 36181 ft 422 kts 271°
2026-04-20 01:13 40.22904 -84.27460 36179 ft 422 kts 272°
2026-04-20 01:14 40.22995 -84.35157 36189 ft 422 kts 272°
2026-04-20 01:14 40.23080 -84.42844 36186 ft 423 kts 272°
2026-04-20 01:15 40.23161 -84.50588 36196 ft 422 kts 272°
2026-04-20 01:15 40.23237 -84.58256 36175 ft 422 kts 272°
2026-04-20 01:16 40.23307 -84.65976 36184 ft 422 kts 272°
2026-04-20 01:16 40.23372 -84.73679 36187 ft 424 kts 271°
2026-04-20 01:17 40.23430 -84.81149 36192 ft 421 kts 272°
2026-04-20 01:17 40.23486 -84.88886 36188 ft 424 kts 271°
2026-04-20 01:18 40.23535 -84.96523 36183 ft 422 kts 271°
2026-04-20 01:18 40.23581 -85.04229 36188 ft 423 kts 272°
2026-04-20 01:19 40.23620 -85.11758 36191 ft 424 kts 272°
2026-04-20 01:19 40.23655 -85.19508 36203 ft 422 kts 272°
2026-04-20 01:20 40.23683 -85.27023 36201 ft 423 kts 272°
2026-04-20 01:20 40.23708 -85.34743 36202 ft 422 kts 272°
2026-04-20 01:21 40.23777 -85.42506 36200 ft 424 kts 274°
2026-04-20 01:21 40.24066 -85.50159 36205 ft 422 kts 275°
2026-04-20 01:22 40.24345 -85.57869 36196 ft 421 kts 275°
2026-04-20 01:22 40.24613 -85.65592 36200 ft 422 kts 274°
2026-04-20 01:23 40.24869 -85.73280 36204 ft 422 kts 274°
2026-04-20 01:23 40.25114 -85.80806 36218 ft 422 kts 274°
2026-04-20 01:24 40.25356 -85.88469 36221 ft 422 kts 274°
2026-04-20 01:24 40.25595 -85.96177 36204 ft 420 kts 274°
2026-04-20 01:25 40.25828 -86.03866 36212 ft 421 kts 274°
2026-04-20 01:25 40.26057 -86.11602 36217 ft 422 kts 274°
2026-04-20 01:26 40.26278 -86.19259 36222 ft 421 kts 274°
2026-04-20 01:26 40.26496 -86.26968 36215 ft 423 kts 274°
2026-04-20 01:27 40.26707 -86.34626 36215 ft 421 kts 275°
2026-04-20 01:27 40.26902 -86.41831 36215 ft 420 kts 275°
2026-04-20 01:28 40.27109 -86.49690 36215 ft 421 kts 275°
2026-04-20 01:28 40.27306 -86.57376 36219 ft 422 kts 275°
2026-04-20 01:29 40.27496 -86.65030 36207 ft 420 kts 274°
2026-04-20 01:29 40.27684 -86.72737 36225 ft 422 kts 275°
2026-04-20 01:30 40.27860 -86.80179 36219 ft 422 kts 275°
2026-04-20 01:30 40.28035 -86.87806 36224 ft 421 kts 274°
2026-04-20 01:31 40.28207 -86.95493 36223 ft 423 kts 275°
2026-04-20 01:31 40.28374 -87.03182 36234 ft 421 kts 275°
2026-04-20 01:32 40.28515 -87.09894 36230 ft 419 kts 275°
2026-04-20 01:32 40.28667 -87.17312 36221 ft 420 kts 275°
2026-04-20 01:33 40.28794 -87.23703 36216 ft 419 kts 275°
2026-04-20 01:33 40.28892 -87.28793 36221 ft 419 kts 275°
2026-04-20 01:34 40.29008 -87.34946 36227 ft 419 kts 275°
2026-04-20 01:34 40.29147 -87.42541 36220 ft 419 kts 275°
2026-04-20 01:35 40.29272 -87.49617 36225 ft 418 kts 275°
2026-04-20 01:35 40.29392 -87.56802 36220 ft 418 kts 274°
2026-04-20 01:36 40.29322 -87.63937 36225 ft 418 kts 273°
2026-04-20 01:36 40.29249 -87.69621 36238 ft 420 kts 273°
2026-04-20 01:37 40.29174 -87.75671 36227 ft 418 kts 273°
2026-04-20 01:37 40.29081 -87.83125 36238 ft 419 kts 273°
2026-04-20 01:38 40.28984 -87.90726 36235 ft 417 kts 273°
2026-04-20 01:38 40.28883 -87.98338 36237 ft 420 kts 273°
2026-04-20 01:39 40.28777 -88.05987 36239 ft 417 kts 273°
2026-04-20 01:39 40.28667 -88.13596 36236 ft 417 kts 273°
2026-04-20 01:40 40.28551 -88.21237 36229 ft 418 kts 273°
2026-04-20 01:40 40.28432 -88.28803 36239 ft 416 kts 274°
2026-04-20 01:41 40.28307 -88.36443 36232 ft 418 kts 274°
2026-04-20 01:41 40.28177 -88.44065 36228 ft 415 kts 273°
2026-04-20 01:42 40.28042 -88.51694 36229 ft 417 kts 273°
2026-04-20 01:42 40.27903 -88.59245 36226 ft 414 kts 274°
2026-04-20 01:43 40.27760 -88.66787 36244 ft 415 kts 272°
2026-04-20 01:43 40.27614 -88.74192 36251 ft 415 kts 273°
2026-04-20 01:44 40.27459 -88.81831 36246 ft 416 kts 273°
2026-04-20 01:44 40.27300 -88.89422 36253 ft 415 kts 273°
2026-04-20 01:45 40.27137 -88.96968 36250 ft 414 kts 273°
2026-04-20 01:45 40.26967 -89.04597 36251 ft 415 kts 273°
2026-04-20 01:46 40.26794 -89.12118 36246 ft 414 kts 273°
2026-04-20 01:46 40.26617 -89.19688 36251 ft 416 kts 273°
2026-04-20 01:47 40.26432 -89.27270 36247 ft 413 kts 273°
2026-04-20 01:47 40.26244 -89.34852 36254 ft 416 kts 273°
2026-04-20 01:48 40.26052 -89.42390 36248 ft 416 kts 273°
2026-04-20 01:48 40.25853 -89.49951 36248 ft 414 kts 273°
2026-04-20 01:49 40.25649 -89.57562 36241 ft 414 kts 273°
2026-04-20 01:49 40.25441 -89.65131 36240 ft 414 kts 272°
2026-04-20 01:50 40.25228 -89.72729 36254 ft 415 kts 272°
2026-04-20 01:50 40.25010 -89.80272 36255 ft 414 kts 272°
2026-04-20 01:51 40.24792 -89.87672 36250 ft 414 kts 272°
2026-04-20 01:51 40.24636 -89.92887 36251 ft 415 kts 273°
2026-04-20 01:52 40.24404 -90.00448 36250 ft 413 kts 272°
2026-04-20 01:52 40.24174 -90.07870 36250 ft 415 kts 272°
2026-04-20 01:53 40.23959 -90.14630 36248 ft 415 kts 272°
2026-04-20 01:53 40.23786 -90.19976 36249 ft 415 kts 272°
2026-04-20 01:54 40.23622 -90.24978 36249 ft 415 kts 272°
2026-04-20 01:54 40.23370 -90.32526 36247 ft 415 kts 272°
2026-04-20 01:55 40.23112 -90.40107 36249 ft 417 kts 272°
2026-04-20 01:55 40.22849 -90.47671 36255 ft 415 kts 272°
2026-04-20 01:56 40.22581 -90.55260 36256 ft 416 kts 272°
2026-04-20 01:56 40.22308 -90.62852 36262 ft 418 kts 273°
2026-04-20 01:57 40.22027 -90.70476 36269 ft 416 kts 272°
2026-04-20 01:57 40.21753 -90.77832 36272 ft 417 kts 272°
2026-04-20 01:58 40.21463 -90.85478 36273 ft 418 kts 272°
2026-04-20 01:58 40.21167 -90.93125 36267 ft 417 kts 272°
2026-04-20 01:59 40.20869 -91.00711 36263 ft 419 kts 272°
2026-04-20 01:59 40.20563 -91.08357 36262 ft 417 kts 272°
2026-04-20 02:00 40.20257 -91.15897 36256 ft 419 kts 272°
2026-04-20 02:00 40.19939 -91.23600 36247 ft 416 kts 272°
2026-04-20 02:01 40.19622 -91.31158 36251 ft 417 kts 272°
2026-04-20 02:01 40.19303 -91.38641 36245 ft 417 kts 272°
2026-04-20 02:02 40.18985 -91.46017 36260 ft 417 kts 272°
2026-04-20 02:02 40.18651 -91.53622 36248 ft 418 kts 272°
2026-04-20 02:03 40.18314 -91.61192 36259 ft 418 kts 272°
2026-04-20 02:03 40.17968 -91.68833 36262 ft 417 kts 271°
2026-04-20 02:04 40.17620 -91.76437 36259 ft 419 kts 271°
2026-04-20 02:04 40.17263 -91.84102 36257 ft 419 kts 271°
2026-04-20 02:05 40.16904 -91.91708 36255 ft 418 kts 271°
2026-04-20 02:05 40.16542 -91.99275 36262 ft 419 kts 271°
2026-04-20 02:06 40.16174 -92.06872 36267 ft 419 kts 271°
2026-04-20 02:06 40.15801 -92.14453 36263 ft 418 kts 271°
2026-04-20 02:07 40.15420 -92.22108 36260 ft 419 kts 271°
2026-04-20 02:07 40.15036 -92.29702 36257 ft 419 kts 271°
2026-04-20 02:08 40.14648 -92.37293 36258 ft 418 kts 271°
2026-04-20 02:08 40.14251 -92.44958 36257 ft 418 kts 271°
2026-04-20 02:09 40.13854 -92.52527 36253 ft 419 kts 271°
2026-04-20 02:09 40.13517 -92.60210 36257 ft 415 kts 276°
2026-04-20 02:10 40.13763 -92.67832 36270 ft 416 kts 276°
2026-04-20 02:10 40.14019 -92.75296 36275 ft 415 kts 277°
2026-04-20 02:11 40.14270 -92.82925 36267 ft 416 kts 276°
2026-04-20 02:11 40.14510 -92.90510 36269 ft 415 kts 276°
2026-04-20 02:12 40.14746 -92.98174 36273 ft 417 kts 276°
2026-04-20 02:12 40.14971 -93.05692 36259 ft 415 kts 276°
2026-04-20 02:13 40.15194 -93.13285 36261 ft 414 kts 276°
2026-04-20 02:13 40.15411 -93.20824 36262 ft 417 kts 276°
2026-04-20 02:14 40.15622 -93.28405 36252 ft 413 kts 276°
2026-04-20 02:14 40.15828 -93.35914 36244 ft 416 kts 276°
2026-04-20 02:15 40.16029 -93.43477 36246 ft 414 kts 277°
2026-04-20 02:15 40.16226 -93.51015 36240 ft 416 kts 277°
2026-04-20 02:16 40.16410 -93.58254 36238 ft 416 kts 277°
2026-04-20 02:16 40.16600 -93.65956 36238 ft 417 kts 276°
2026-04-20 02:17 40.16782 -93.73515 36254 ft 417 kts 276°
2026-04-20 02:17 40.16960 -93.81130 36250 ft 417 kts 276°
2026-04-20 02:18 40.17134 -93.88726 36242 ft 417 kts 276°
2026-04-20 02:18 40.17301 -93.96301 36247 ft 417 kts 276°
2026-04-20 02:19 40.17465 -94.03935 36235 ft 416 kts 276°
2026-04-20 02:19 40.17623 -94.11503 36231 ft 419 kts 276°
2026-04-20 02:20 40.17775 -94.19096 36239 ft 416 kts 276°
2026-04-20 02:20 40.17923 -94.26659 36240 ft 417 kts 276°
2026-04-20 02:21 40.18137 -94.38059 36239 ft 418 kts 276°
2026-04-20 02:22 40.18271 -94.45624 36245 ft 413 kts 276°
2026-04-20 02:22 40.18399 -94.53041 36246 ft 415 kts 276°
2026-04-20 02:23 40.18525 -94.60611 36243 ft 416 kts 276°
2026-04-20 02:23 40.18643 -94.68071 36257 ft 415 kts 276°
2026-04-20 02:24 40.18760 -94.75679 36249 ft 417 kts 276°
2026-04-20 02:24 40.18869 -94.83119 36247 ft 415 kts 276°
2026-04-20 02:25 40.18975 -94.90645 36240 ft 417 kts 276°
2026-04-20 02:25 40.19075 -94.98216 36245 ft 415 kts 276°
2026-04-20 02:26 40.19172 -95.05804 36237 ft 417 kts 276°
2026-04-20 02:26 40.19264 -95.13428 36239 ft 417 kts 276°
2026-04-20 02:27 40.19349 -95.20995 36234 ft 414 kts 276°
2026-04-20 02:27 40.19430 -95.28510 36229 ft 416 kts 276°
2026-04-20 02:28 40.19506 -95.36022 36230 ft 414 kts 276°
2026-04-20 02:28 40.19556 -95.41295 36247 ft 415 kts 276°
2026-04-20 02:29 40.19615 -95.47807 36231 ft 414 kts 276°
2026-04-20 02:29 40.19677 -95.55221 36227 ft 414 kts 276°
2026-04-20 02:30 40.19712 -95.59589 36224 ft 414 kts 276°
2026-04-20 02:30 40.19757 -95.65616 36243 ft 414 kts 276°
2026-04-20 02:30 40.19783 -95.69202 36032 ft 415 kts 276°
2026-04-20 02:31 40.19800 -95.71704 36195 ft 415 kts 275°
2026-04-20 02:31 40.19841 -95.78068 36222 ft 416 kts 275°
2026-04-20 02:32 40.19884 -95.85456 36234 ft 416 kts 275°
2026-04-20 02:32 40.19923 -95.92876 36246 ft 419 kts 276°
2026-04-20 02:33 40.19957 -96.00495 36252 ft 417 kts 276°
2026-04-20 02:33 40.19986 -96.08067 36251 ft 416 kts 275°
2026-04-20 02:34 40.20010 -96.15661 36236 ft 416 kts 276°
2026-04-20 02:34 40.20051 -96.23271 36230 ft 415 kts 276°
2026-04-20 02:35 40.20206 -96.30842 36236 ft 413 kts 277°
2026-04-20 02:35 40.20353 -96.38372 36219 ft 414 kts 277°
2026-04-20 02:36 40.20491 -96.45931 36205 ft 412 kts 277°
2026-04-20 02:36 40.20622 -96.53407 36213 ft 415 kts 277°
2026-04-20 02:37 40.20746 -96.60922 36215 ft 411 kts 277°
2026-04-20 02:37 40.20868 -96.68481 36242 ft 414 kts 276°
2026-04-20 02:38 40.20982 -96.76006 36241 ft 412 kts 277°
2026-04-20 02:38 40.21093 -96.83520 36225 ft 415 kts 277°
2026-04-20 02:39 40.21198 -96.91101 36221 ft 411 kts 276°
2026-04-20 02:39 40.21298 -96.98631 36235 ft 412 kts 277°
2026-04-20 02:40 40.21395 -97.06187 36216 ft 413 kts 276°
2026-04-20 02:40 40.21485 -97.13738 36206 ft 413 kts 277°
2026-04-20 02:41 40.21570 -97.21243 36207 ft 412 kts 277°
2026-04-20 02:41 40.21651 -97.28806 36208 ft 411 kts 277°
2026-04-20 02:42 40.21727 -97.36340 36200 ft 411 kts 277°
2026-04-20 02:42 40.21798 -97.43915 36207 ft 411 kts 277°
2026-04-20 02:43 40.21865 -97.51534 36209 ft 414 kts 277°
2026-04-20 02:43 40.21925 -97.59061 36205 ft 413 kts 277°
2026-04-20 02:44 40.21982 -97.66669 36208 ft 411 kts 277°
2026-04-20 02:44 40.22034 -97.74207 36213 ft 413 kts 276°
2026-04-20 02:45 40.22080 -97.81710 36207 ft 410 kts 276°
2026-04-20 02:45 40.22121 -97.89208 36200 ft 412 kts 276°
2026-04-20 02:46 40.22158 -97.96711 36192 ft 413 kts 276°
2026-04-20 02:46 40.22190 -98.04271 36197 ft 414 kts 277°
2026-04-20 02:47 40.22216 -98.11811 36191 ft 411 kts 276°
2026-04-20 02:47 40.22239 -98.19325 36186 ft 416 kts 276°
2026-04-20 02:48 40.22255 -98.26907 36175 ft 413 kts 276°
2026-04-20 02:48 40.22268 -98.34439 36180 ft 415 kts 276°
2026-04-20 02:49 40.22275 -98.42143 36176 ft 412 kts 276°
2026-04-20 02:49 40.22277 -98.49709 36174 ft 413 kts 276°
2026-04-20 02:50 40.22275 -98.57404 36176 ft 416 kts 276°
2026-04-20 02:50 40.22267 -98.65043 36170 ft 415 kts 276°
2026-04-20 02:51 40.22254 -98.72623 36185 ft 414 kts 276°
2026-04-20 02:51 40.22236 -98.80252 36185 ft 415 kts 276°
2026-04-20 02:52 40.22214 -98.87830 36184 ft 415 kts 276°
2026-04-20 02:52 40.22186 -98.95463 36182 ft 416 kts 276°
2026-04-20 02:53 40.22154 -99.03003 36179 ft 416 kts 275°
2026-04-20 02:53 40.22116 -99.10693 36183 ft 417 kts 275°
2026-04-20 02:54 40.22073 -99.18317 36185 ft 417 kts 275°
2026-04-20 02:54 40.22025 -99.26015 36165 ft 419 kts 275°
2026-04-20 02:55 40.21972 -99.33653 36164 ft 419 kts 275°
2026-04-20 02:55 40.21914 -99.41424 36167 ft 420 kts 275°
2026-04-20 02:56 40.21849 -99.49222 36154 ft 421 kts 275°
2026-04-20 02:56 40.21779 -99.57052 36153 ft 423 kts 275°
2026-04-20 02:57 40.21704 -99.64887 36138 ft 422 kts 275°
2026-04-20 02:57 40.21628 -99.72376 36159 ft 425 kts 274°
2026-04-20 02:58 40.21557 -99.78801 36153 ft 423 kts 274°
2026-04-20 02:58 40.21473 -99.86211 36152 ft 425 kts 274°
2026-04-20 02:59 40.21388 -99.93287 36147 ft 426 kts 274°
2026-04-20 02:59 40.21291 -100.00845 36143 ft 426 kts 274°
2026-04-20 03:00 40.21187 -100.08640 36138 ft 427 kts 274°
2026-04-20 03:00 40.21078 -100.16383 36130 ft 426 kts 274°
2026-04-20 03:01 40.20963 -100.24185 36137 ft 427 kts 274°
2026-04-20 03:01 40.20844 -100.31971 36132 ft 427 kts 274°
2026-04-20 03:02 40.20719 -100.39753 36129 ft 428 kts 274°
2026-04-20 03:02 40.20588 -100.47592 36134 ft 429 kts 274°
2026-04-20 03:03 40.20452 -100.55397 36136 ft 430 kts 274°
2026-04-20 03:03 40.20250 -100.63291 36141 ft 432 kts 272°
2026-04-20 03:04 40.19878 -100.71194 36148 ft 434 kts 271°
2026-04-20 03:04 40.19505 -100.79144 36138 ft 433 kts 271°
2026-04-20 03:05 40.19137 -100.87000 36138 ft 433 kts 271°
2026-04-20 03:05 40.18767 -100.94843 36135 ft 435 kts 271°
2026-04-20 03:06 40.18387 -101.02821 36130 ft 436 kts 271°
2026-04-20 03:06 40.18004 -101.10753 36128 ft 436 kts 271°
2026-04-20 03:07 40.17617 -101.18662 36126 ft 436 kts 271°
2026-04-20 03:07 40.17232 -101.26432 36125 ft 437 kts 271°
2026-04-20 03:08 40.16851 -101.34027 36118 ft 439 kts 271°
2026-04-20 03:08 40.16504 -101.40850 36119 ft 438 kts 271°
2026-04-20 03:09 40.16102 -101.48660 36120 ft 438 kts 271°
2026-04-20 03:09 40.15688 -101.56602 36118 ft 440 kts 271°
2026-04-20 03:10 40.15265 -101.64595 36110 ft 440 kts 271°
2026-04-20 03:10 40.14841 -101.72519 36114 ft 439 kts 270°
2026-04-20 03:11 40.14467 -101.79428 36116 ft 439 kts 270°
2026-04-20 03:11 40.13996 -101.88011 36107 ft 439 kts 270°
2026-04-20 03:12 40.13548 -101.96080 36105 ft 443 kts 270°
2026-04-20 03:12 40.13097 -102.04072 36109 ft 439 kts 270°
2026-04-20 03:13 40.12642 -102.12071 36117 ft 442 kts 270°
2026-04-20 03:13 40.12181 -102.20061 36125 ft 440 kts 270°
2026-04-20 03:14 40.11716 -102.28034 36121 ft 440 kts 270°
2026-04-20 03:14 40.11241 -102.36071 36128 ft 441 kts 270°
2026-04-20 03:15 40.10764 -102.44051 36138 ft 441 kts 270°
2026-04-20 03:15 40.10280 -102.52066 36142 ft 440 kts 270°
2026-04-20 03:16 40.09792 -102.60038 36144 ft 440 kts 270°
2026-04-20 03:16 40.09299 -102.68016 36161 ft 440 kts 269°
2026-04-20 03:17 40.08807 -102.75871 36168 ft 439 kts 270°
2026-04-20 03:17 40.08304 -102.83846 36166 ft 439 kts 270°
2026-04-20 03:18 40.07796 -102.91795 36177 ft 440 kts 270°
2026-04-20 03:18 40.07283 -102.99735 36184 ft 439 kts 270°
2026-04-20 03:19 40.06786 -103.07345 36191 ft 440 kts 270°
2026-04-20 03:19 40.06287 -103.14901 36168 ft 440 kts 270°
2026-04-20 03:20 40.05757 -103.22862 36172 ft 441 kts 270°
2026-04-20 03:20 40.05221 -103.30827 36176 ft 440 kts 270°
2026-04-20 03:21 40.04679 -103.38793 36180 ft 440 kts 270°
2026-04-20 03:21 40.04125 -103.46847 36182 ft 438 kts 270°
2026-04-20 03:22 40.03564 -103.54941 36180 ft 440 kts 270°
2026-04-20 03:22 40.03000 -103.62982 36181 ft 438 kts 270°
2026-04-20 03:23 40.02436 -103.70942 36186 ft 440 kts 269°
2026-04-20 03:23 40.01889 -103.78589 36180 ft 438 kts 269°
2026-04-20 03:24 40.01318 -103.86497 36189 ft 439 kts 269°
2026-04-20 03:24 40.00742 -103.94411 36186 ft 439 kts 269°
2026-04-20 03:25 40.00160 -104.02319 36206 ft 439 kts 269°
2026-04-20 03:25 39.99567 -104.10306 36196 ft 438 kts 269°
2026-04-20 03:26 39.98973 -104.18232 36216 ft 439 kts 269°
2026-04-20 03:26 39.98373 -104.26157 36216 ft 440 kts 269°
2026-04-20 03:27 39.97767 -104.34098 36208 ft 439 kts 269°
2026-04-20 03:27 39.97155 -104.42039 36189 ft 441 kts 269°
2026-04-20 03:28 39.96569 -104.49585 36147 ft 439 kts 269°
2026-04-20 03:28 39.95658 -104.61170 36141 ft 440 kts 269°
2026-04-20 03:29 39.95026 -104.69136 36156 ft 441 kts 268°
2026-04-20 03:29 39.94388 -104.77094 36155 ft 440 kts 268°
2026-04-20 03:30 39.93746 -104.85036 36160 ft 442 kts 268°
2026-04-20 03:30 39.93098 -104.92995 36159 ft 442 kts 268°
2026-04-20 03:31 39.92440 -105.00997 36160 ft 443 kts 268°
2026-04-20 03:31 39.91777 -105.08981 36493 ft 443 kts 268°
2026-04-20 03:32 39.91439 -105.13036 36206 ft 443 kts 268°
2026-04-20 03:32 39.91105 -105.17020 35990 ft 438 kts 268°
2026-04-20 03:32 39.90767 -105.21037 36175 ft 442 kts 268°
2026-04-20 03:32 39.90425 -105.25088 36192 ft 444 kts 267°
2026-04-20 03:33 39.89739 -105.33145 36206 ft 440 kts 267°
2026-04-20 03:33 39.89056 -105.41125 36284 ft 443 kts 267°
2026-04-20 03:34 39.88372 -105.49026 36535 ft 441 kts 267°
2026-04-20 03:34 39.88022 -105.53047 36363 ft 437 kts 267°
2026-04-20 03:34 39.87670 -105.57080 36390 ft 438 kts 267°
2026-04-20 03:35 39.86971 -105.65041 36392 ft 440 kts 266°
2026-04-20 03:35 39.86282 -105.72828 36410 ft 441 kts 266°
2026-04-20 03:36 39.85572 -105.80780 36429 ft 441 kts 266°
2026-04-20 03:36 39.84860 -105.88696 36436 ft 441 kts 266°
2026-04-20 03:37 39.84144 -105.96590 36443 ft 442 kts 266°
2026-04-20 03:37 39.83423 -106.04487 36444 ft 439 kts 266°
2026-04-20 03:38 39.82689 -106.12453 36442 ft 439 kts 266°
2026-04-20 03:38 39.81947 -106.20458 36438 ft 440 kts 266°
2026-04-20 03:39 39.81194 -106.28512 36439 ft 440 kts 266°
2026-04-20 03:39 39.80466 -106.36254 36440 ft 440 kts 266°
2026-04-20 03:40 39.79701 -106.44319 36438 ft 441 kts 265°
2026-04-20 03:40 39.78997 -106.51681 36434 ft 441 kts 265°
2026-04-20 03:41 39.78543 -106.56229 36436 ft 443 kts 264°
2026-04-20 03:41 39.77734 -106.63648 36435 ft 443 kts 264°
2026-04-20 03:42 39.76911 -106.71157 36442 ft 442 kts 264°
2026-04-20 03:42 39.76093 -106.78610 36421 ft 443 kts 264°
2026-04-20 03:43 39.75217 -106.86539 36381 ft 444 kts 264°
2026-04-20 03:43 39.74335 -106.94488 36377 ft 444 kts 263°
2026-04-20 03:44 39.73453 -107.02385 36381 ft 445 kts 263°
2026-04-20 03:44 39.72558 -107.10347 36402 ft 444 kts 263°
2026-04-20 03:45 39.71656 -107.18327 36419 ft 444 kts 263°
2026-04-20 03:45 39.70741 -107.26360 36428 ft 444 kts 263°
2026-04-20 03:46 39.69822 -107.34390 36418 ft 445 kts 263°
2026-04-20 03:46 39.68897 -107.42418 36423 ft 445 kts 263°
2026-04-20 03:47 39.67971 -107.50407 36405 ft 444 kts 263°
2026-04-20 03:47 39.67052 -107.58284 36397 ft 445 kts 263°
2026-04-20 03:48 39.66112 -107.66291 36348 ft 445 kts 262°
2026-04-20 03:48 39.65174 -107.74233 36329 ft 447 kts 262°
2026-04-20 03:49 39.64234 -107.82152 36323 ft 448 kts 262°
2026-04-20 03:49 39.63368 -107.89401 36330 ft 447 kts 262°
2026-04-20 03:50 39.62444 -107.97089 36320 ft 448 kts 262°
2026-04-20 03:50 39.61472 -108.05136 36306 ft 448 kts 262°
2026-04-20 03:51 39.60505 -108.13088 36307 ft 447 kts 262°
2026-04-20 03:51 39.59528 -108.21081 36314 ft 447 kts 262°
2026-04-20 03:52 39.58566 -108.28897 36306 ft 448 kts 262°
2026-04-20 03:52 39.57574 -108.36919 36313 ft 448 kts 261°
2026-04-20 03:53 39.56608 -108.44680 36307 ft 449 kts 261°
2026-04-20 03:53 39.55605 -108.52691 36301 ft 449 kts 261°
2026-04-20 03:54 39.54784 -108.59215 36284 ft 449 kts 261°
2026-04-20 03:54 39.53848 -108.66618 36280 ft 450 kts 261°
2026-04-20 03:55 39.52916 -108.73955 36272 ft 448 kts 261°
2026-04-20 03:55 39.52388 -108.78088 35976 ft 450 kts 261°
2026-04-20 03:55 39.51873 -108.82109 36101 ft 453 kts 260°
2026-04-20 03:56 39.51358 -108.86119 36532 ft 451 kts 260°
2026-04-20 03:56 39.50914 -108.89575 36343 ft 453 kts 260°
2026-04-20 03:56 39.50394 -108.93604 36058 ft 449 kts 260°
2026-04-20 03:56 39.49879 -108.97583 36270 ft 453 kts 260°
2026-04-20 03:57 39.48880 -109.05269 36268 ft 452 kts 260°
2026-04-20 03:57 39.48394 -109.08993 36272 ft 453 kts 260°
2026-04-20 03:58 39.47357 -109.16914 36266 ft 453 kts 260°
2026-04-20 03:58 39.46492 -109.23486 36269 ft 452 kts 260°
2026-04-20 03:59 39.45561 -109.30525 36259 ft 453 kts 260°
2026-04-20 03:59 39.44579 -109.37910 36263 ft 453 kts 260°
2026-04-20 04:00 39.43522 -109.45824 36258 ft 454 kts 260°
2026-04-20 04:00 39.42488 -109.53525 36253 ft 455 kts 260°
2026-04-20 04:01 39.41412 -109.61491 36259 ft 454 kts 260°
2026-04-20 04:01 39.40322 -109.69518 36266 ft 456 kts 259°
2026-04-20 04:02 39.39321 -109.76860 36274 ft 455 kts 259°
2026-04-20 04:02 39.38372 -109.83778 36261 ft 455 kts 259°
2026-04-20 04:03 39.37270 -109.91785 36232 ft 455 kts 259°
2026-04-20 04:03 39.36156 -109.99889 36224 ft 456 kts 259°
2026-04-20 04:04 39.35069 -110.08051 36222 ft 455 kts 259°
2026-04-20 04:04 39.33981 -110.16174 36229 ft 456 kts 259°
2026-04-20 04:05 39.32885 -110.24303 36236 ft 455 kts 259°
2026-04-20 04:05 39.31774 -110.32488 36238 ft 456 kts 259°
2026-04-20 04:06 39.30679 -110.40508 36236 ft 457 kts 259°
2026-04-20 04:06 39.29563 -110.48638 36237 ft 457 kts 259°
2026-04-20 04:07 39.28437 -110.56805 36239 ft 456 kts 259°
2026-04-20 04:07 39.27316 -110.64883 36241 ft 455 kts 259°
2026-04-20 04:08 39.26186 -110.72990 36245 ft 455 kts 258°
2026-04-20 04:08 39.25048 -110.81100 36249 ft 457 kts 258°
2026-04-20 04:09 39.23902 -110.89231 36255 ft 456 kts 258°
2026-04-20 04:09 39.22755 -110.97329 36248 ft 456 kts 258°
2026-04-20 04:10 39.21603 -111.05429 36252 ft 457 kts 258°
2026-04-20 04:10 39.20454 -111.13460 36264 ft 456 kts 258°
2026-04-20 04:11 39.19281 -111.21619 36277 ft 456 kts 258°
2026-04-20 04:11 39.18106 -111.29748 36290 ft 456 kts 258°
2026-04-20 04:12 39.16925 -111.37877 36304 ft 454 kts 258°
2026-04-20 04:12 39.15753 -111.45901 36316 ft 456 kts 258°
2026-04-20 04:13 39.14572 -111.53947 36313 ft 456 kts 258°
2026-04-20 04:13 39.13393 -111.61944 36280 ft 455 kts 258°
2026-04-20 04:14 39.12204 -111.69963 36256 ft 455 kts 257°
2026-04-20 04:14 39.11005 -111.78015 36235 ft 456 kts 257°
2026-04-20 04:15 39.09804 -111.86038 36231 ft 455 kts 257°
2026-04-20 04:15 39.08598 -111.94055 36226 ft 456 kts 257°
2026-04-20 04:16 39.07385 -112.02075 36224 ft 457 kts 257°
2026-04-20 04:16 39.06156 -112.10166 36221 ft 457 kts 257°
2026-04-20 04:17 39.04933 -112.18180 36224 ft 456 kts 257°
2026-04-20 04:17 39.03705 -112.26186 36199 ft 455 kts 257°
2026-04-20 04:18 39.02471 -112.34190 36134 ft 455 kts 257°
2026-04-20 04:18 39.01236 -112.42168 36115 ft 456 kts 257°
2026-04-20 04:19 38.99985 -112.50202 36121 ft 455 kts 257°
2026-04-20 04:19 38.98798 -112.57791 36147 ft 455 kts 257°
2026-04-20 04:20 38.97559 -112.65672 36155 ft 456 kts 256°
2026-04-20 04:20 38.96315 -112.73552 36151 ft 455 kts 256°
2026-04-20 04:21 38.95045 -112.81560 36177 ft 455 kts 256°
2026-04-20 04:21 38.93776 -112.89529 36171 ft 455 kts 256°
2026-04-20 04:22 38.92540 -112.97250 36153 ft 455 kts 256°
2026-04-20 04:22 38.91273 -113.05132 36143 ft 455 kts 256°
2026-04-20 04:23 38.90067 -113.12596 36150 ft 456 kts 256°
2026-04-20 04:23 38.88909 -113.19739 36151 ft 455 kts 256°
2026-04-20 04:24 38.87667 -113.27367 36149 ft 456 kts 256°
2026-04-20 04:24 38.86367 -113.35317 36171 ft 454 kts 256°
2026-04-20 04:25 38.84514 -113.46581 36185 ft 453 kts 256°
2026-04-20 04:26 38.83202 -113.54514 36200 ft 453 kts 256°
2026-04-20 04:26 38.81884 -113.62452 36198 ft 453 kts 256°
2026-04-20 04:27 38.80565 -113.70357 36215 ft 451 kts 255°
2026-04-20 04:27 38.79237 -113.78281 36215 ft 451 kts 256°
2026-04-20 04:28 38.77916 -113.86134 36204 ft 451 kts 256°
2026-04-20 04:28 38.76587 -113.93989 36194 ft 452 kts 256°
2026-04-20 04:29 38.75243 -114.01904 36180 ft 453 kts 256°
2026-04-20 04:29 38.73898 -114.09787 36192 ft 451 kts 256°
2026-04-20 04:30 38.72541 -114.17705 36200 ft 453 kts 256°
2026-04-20 04:30 38.71177 -114.25639 36207 ft 452 kts 256°
2026-04-20 04:31 38.69818 -114.33502 36202 ft 451 kts 256°
2026-04-20 04:31 38.68442 -114.41429 36187 ft 453 kts 256°
2026-04-20 04:32 38.67066 -114.49329 36183 ft 452 kts 256°
2026-04-20 04:32 38.65688 -114.57205 36183 ft 452 kts 256°
2026-04-20 04:33 38.64298 -114.65112 36195 ft 452 kts 255°
2026-04-20 04:33 38.63578 -114.69196 36208 ft 453 kts 255°
2026-04-20 04:34 38.62306 -114.76391 36216 ft 451 kts 255°
2026-04-20 04:34 38.61629 -114.80205 36210 ft 452 kts 255°
2026-04-20 04:35 38.60225 -114.88098 36188 ft 454 kts 255°
2026-04-20 04:35 38.58816 -114.95985 36175 ft 453 kts 255°
2026-04-20 04:36 38.56698 -115.07779 36173 ft 453 kts 255°
2026-04-20 04:37 38.55286 -115.15604 36169 ft 452 kts 256°
2026-04-20 04:37 38.53853 -115.23505 36175 ft 453 kts 256°
2026-04-20 04:38 38.52426 -115.31348 36179 ft 454 kts 256°
2026-04-20 04:38 38.51003 -115.39131 36177 ft 452 kts 256°
2026-04-20 04:39 38.49578 -115.46898 36179 ft 452 kts 256°
2026-04-20 04:39 38.48129 -115.54763 36171 ft 453 kts 256°
2026-04-20 04:40 38.46682 -115.62589 36164 ft 453 kts 256°
2026-04-20 04:40 38.45224 -115.70438 36161 ft 452 kts 256°
2026-04-20 04:41 38.43763 -115.78275 36154 ft 453 kts 256°
2026-04-20 04:41 38.42299 -115.86093 36157 ft 452 kts 256°
2026-04-20 04:42 38.40828 -115.93926 36159 ft 454 kts 256°
2026-04-20 04:42 38.39341 -116.01805 36163 ft 453 kts 256°
2026-04-20 04:43 38.37866 -116.09592 36161 ft 453 kts 256°
2026-04-20 04:43 38.36377 -116.17421 36156 ft 454 kts 256°
2026-04-20 04:44 38.34887 -116.25227 36153 ft 452 kts 256°
2026-04-20 04:44 38.33385 -116.33064 36159 ft 452 kts 257°
2026-04-20 04:45 38.31697 -116.40829 36156 ft 451 kts 254°
2026-04-20 04:45 38.29939 -116.48562 36157 ft 452 kts 255°
2026-04-20 04:46 38.28194 -116.56256 36158 ft 451 kts 255°
2026-04-20 04:46 38.26432 -116.64024 36157 ft 452 kts 255°
2026-04-20 04:47 38.24694 -116.71674 36160 ft 452 kts 254°
2026-04-20 04:47 38.22925 -116.79436 36164 ft 450 kts 254°
2026-04-20 04:48 38.21181 -116.87069 36165 ft 450 kts 254°
2026-04-20 04:48 38.19434 -116.94688 36157 ft 450 kts 254°
2026-04-20 04:49 38.17665 -117.02381 36130 ft 450 kts 255°
2026-04-20 04:49 38.15913 -117.09975 36127 ft 449 kts 254°
2026-04-20 04:50 38.14198 -117.17384 36112 ft 448 kts 255°
2026-04-20 04:50 38.12420 -117.25037 36121 ft 447 kts 255°
2026-04-20 04:51 38.10731 -117.32333 36120 ft 447 kts 255°
2026-04-20 04:51 38.08958 -117.40018 36131 ft 447 kts 255°
2026-04-20 04:52 38.07196 -117.47628 36127 ft 445 kts 255°
2026-04-20 04:52 38.05434 -117.55207 36125 ft 444 kts 255°
2026-04-20 04:53 38.03672 -117.62762 36118 ft 444 kts 255°
2026-04-20 04:53 38.01885 -117.70402 36114 ft 446 kts 254°
2026-04-20 04:54 38.00272 -117.77827 36087 ft 443 kts 260°
2026-04-20 04:54 37.99412 -117.85665 36086 ft 441 kts 263°
2026-04-20 04:55 37.98607 -117.93411 36080 ft 441 kts 262°
2026-04-20 04:55 37.97788 -118.01201 36076 ft 440 kts 262°
2026-04-20 04:56 37.96959 -118.09010 36079 ft 439 kts 263°
2026-04-20 04:56 37.96135 -118.16726 36096 ft 441 kts 263°
2026-04-20 04:57 37.95301 -118.24473 36099 ft 439 kts 263°
2026-04-20 04:57 37.94470 -118.32144 36113 ft 440 kts 262°
2026-04-20 04:58 37.93631 -118.39842 36116 ft 440 kts 262°
2026-04-20 04:58 37.92780 -118.47594 36463 ft 438 kts 262°
2026-04-20 04:58 37.92357 -118.51435 36264 ft 440 kts 262°
2026-04-20 04:59 37.91930 -118.55296 36120 ft 436 kts 262°
2026-04-20 04:59 37.91081 -118.62941 36133 ft 438 kts 262°
2026-04-20 05:00 37.90228 -118.70574 36135 ft 437 kts 261°
2026-04-20 05:00 37.89407 -118.77877 36138 ft 436 kts 262°
2026-04-20 05:01 37.88554 -118.85422 36140 ft 437 kts 262°
2026-04-20 05:01 37.87687 -118.93047 36141 ft 437 kts 262°
2026-04-20 05:02 37.86816 -119.00662 36140 ft 437 kts 261°
2026-04-20 05:02 37.85938 -119.08291 36162 ft 435 kts 261°
2026-04-20 05:03 37.85066 -119.15830 36181 ft 434 kts 261°
2026-04-20 05:03 37.84185 -119.23395 36202 ft 435 kts 261°
2026-04-20 05:04 37.83298 -119.30972 36204 ft 433 kts 261°
2026-04-20 05:04 37.82404 -119.38564 36184 ft 434 kts 261°
2026-04-20 05:05 37.81547 -119.45802 36166 ft 432 kts 261°
2026-04-20 05:05 37.80679 -119.53096 36134 ft 431 kts 261°
2026-04-20 05:06 37.79815 -119.60313 36125 ft 432 kts 261°
2026-04-20 05:06 37.78914 -119.67801 36121 ft 432 kts 260°
2026-04-20 05:07 37.78070 -119.74783 36098 ft 429 kts 260°
2026-04-20 05:07 37.77696 -119.77866 36090 ft 431 kts 260°
2026-04-20 05:08 37.77053 -119.83140 36031 ft 427 kts 260°
2026-04-20 05:08 37.76580 -119.87019 35304 ft 423 kts 260°
2026-04-20 05:08 37.76203 -119.90092 34610 ft 422 kts 260°
2026-04-20 05:08 37.76062 -119.91239 34368 ft 421 kts 260°
2026-04-20 05:09 37.75517 -119.95673 33510 ft 423 kts 260°
2026-04-20 05:09 37.75060 -119.99371 32760 ft 447 kts 260°
2026-04-20 05:09 37.74578 -120.03271 31881 ft 454 kts 259°
2026-04-20 05:09 37.74094 -120.07172 31025 ft 456 kts 259°
2026-04-20 05:10 37.73603 -120.11125 30382 ft 451 kts 259°
2026-04-20 05:10 37.73121 -120.15000 29934 ft 445 kts 259°
2026-04-20 05:10 37.72639 -120.18856 29428 ft 445 kts 259°
2026-04-20 05:10 37.72159 -120.22689 28891 ft 444 kts 259°
2026-04-20 05:11 37.71672 -120.26563 28333 ft 441 kts 258°
2026-04-20 05:11 37.71191 -120.30381 27774 ft 436 kts 258°
2026-04-20 05:11 37.70719 -120.34126 27220 ft 431 kts 258°
2026-04-20 05:11 37.70249 -120.37839 26983 ft 417 kts 258°
2026-04-20 05:12 37.69800 -120.41399 26947 ft 401 kts 258°
2026-04-20 05:12 37.69394 -120.44857 26486 ft 399 kts 258°
2026-04-20 05:12 37.68988 -120.48379 25806 ft 397 kts 258°
2026-04-20 05:12 37.68592 -120.51807 25252 ft 393 kts 258°
2026-04-20 05:13 37.68201 -120.55173 24750 ft 388 kts 257°
2026-04-20 05:13 37.67812 -120.58511 24265 ft 383 kts 257°
2026-04-20 05:13 37.67421 -120.61855 23782 ft 377 kts 257°
2026-04-20 05:13 37.67043 -120.65070 23313 ft 372 kts 256°
2026-04-20 05:14 37.66661 -120.68314 22852 ft 369 kts 256°
2026-04-20 05:14 37.66296 -120.71403 22413 ft 367 kts 256°
2026-04-20 05:14 37.65917 -120.74596 21948 ft 366 kts 256°
2026-04-20 05:14 37.65537 -120.77779 21471 ft 365 kts 256°
2026-04-20 05:15 37.65160 -120.80914 20959 ft 363 kts 256°
2026-04-20 05:15 37.64782 -120.84051 20448 ft 360 kts 256°
2026-04-20 05:15 37.64403 -120.87196 19993 ft 357 kts 256°
2026-04-20 05:15 37.64027 -120.90300 19498 ft 356 kts 256°
2026-04-20 05:16 37.63658 -120.93346 19036 ft 354 kts 256°
2026-04-20 05:16 37.63283 -120.96437 18563 ft 352 kts 255°
2026-04-20 05:16 37.62889 -120.99455 18107 ft 351 kts 255°
2026-04-20 05:16 37.62504 -121.02312 17656 ft 349 kts 255°
2026-04-20 05:17 37.62094 -121.05355 17182 ft 347 kts 255°
2026-04-20 05:17 37.61709 -121.08230 16761 ft 345 kts 255°
2026-04-20 05:17 37.61307 -121.11227 16325 ft 344 kts 255°
2026-04-20 05:17 37.60905 -121.14213 15907 ft 344 kts 255°
2026-04-20 05:18 37.60503 -121.17203 15416 ft 343 kts 255°
2026-04-20 05:18 37.60102 -121.20188 14868 ft 340 kts 255°
2026-04-20 05:18 37.59740 -121.22878 14479 ft 337 kts 255°
2026-04-20 05:18 37.59346 -121.25788 14082 ft 336 kts 255°
2026-04-20 05:19 37.59060 -121.27978 13770 ft 335 kts 256°
2026-04-20 05:19 37.58963 -121.28814 13648 ft 335 kts 256°
2026-04-20 05:19 37.58637 -121.31728 13341 ft 334 kts 256°
2026-04-20 05:19 37.58378 -121.34042 13110 ft 335 kts 256°
2026-04-20 05:20 37.58330 -121.34471 13068 ft 335 kts 256°
2026-04-20 05:20 37.57998 -121.37384 12778 ft 334 kts 256°
2026-04-20 05:20 37.57874 -121.38472 12657 ft 333 kts 256°
2026-04-20 05:21 37.57822 -121.38924 12608 ft 332 kts 256°
2026-04-20 05:21 37.57492 -121.41800 12249 ft 326 kts 256°
2026-04-20 05:21 37.57212 -121.44224 11979 ft 320 kts 256°
2026-04-20 05:21 37.56892 -121.46985 11694 ft 313 kts 256°
2026-04-20 05:22 37.56618 -121.49341 11445 ft 308 kts 256°
2026-04-20 05:22 37.56311 -121.51975 11138 ft 303 kts 256°
2026-04-20 05:22 37.56004 -121.54610 10845 ft 298 kts 256°
2026-04-20 05:22 37.55704 -121.57175 10563 ft 293 kts 256°
2026-04-20 05:23 37.55406 -121.59719 10280 ft 288 kts 256°
2026-04-20 05:23 37.55098 -121.62193 10000 ft 282 kts 252°
2026-04-20 05:23 37.54593 -121.64580 9733 ft 276 kts 248°
2026-04-20 05:23 37.54038 -121.66887 9455 ft 272 kts 247°
2026-04-20 05:24 37.53487 -121.69170 9173 ft 268 kts 247°
2026-04-20 05:24 37.52952 -121.71403 8909 ft 264 kts 248°
2026-04-20 05:24 37.52421 -121.73625 8660 ft 260 kts 247°
2026-04-20 05:24 37.51906 -121.75778 8421 ft 256 kts 247°
2026-04-20 05:25 37.51391 -121.77927 8167 ft 254 kts 247°
2026-04-20 05:25 37.50878 -121.80065 7905 ft 254 kts 247°
2026-04-20 05:25 37.50368 -121.82190 7644 ft 255 kts 247°
2026-04-20 05:25 37.49853 -121.84336 7370 ft 253 kts 248°
2026-04-20 05:26 37.49347 -121.86450 7099 ft 251 kts 249°
2026-04-20 05:26 37.49159 -121.88675 6834 ft 257 kts 266°
2026-04-20 05:26 37.49264 -121.90918 6567 ft 257 kts 269°
2026-04-20 05:26 37.49403 -121.93175 6292 ft 256 kts 269°
2026-04-20 05:27 37.49538 -121.95420 6020 ft 254 kts 269°
2026-04-20 05:27 37.49667 -121.97633 5746 ft 252 kts 269°
2026-04-20 05:27 37.49795 -121.99841 5466 ft 251 kts 269°
2026-04-20 05:27 37.49921 -122.02030 5198 ft 249 kts 269°
2026-04-20 05:28 37.50045 -122.04208 4933 ft 248 kts 269°
2026-04-20 05:28 37.50171 -122.06412 4665 ft 246 kts 269°
2026-04-20 05:28 37.50303 -122.08576 4399 ft 245 kts 273°
2026-04-20 05:28 37.50825 -122.10634 4269 ft 242 kts 288°
2026-04-20 05:29 37.51523 -122.12541 4078 ft 235 kts 290°
2026-04-20 05:29 37.52249 -122.14367 3784 ft 232 kts 292°
2026-04-20 05:29 37.53021 -122.16195 3480 ft 230 kts 293°
2026-04-20 05:29 37.53780 -122.17943 3187 ft 224 kts 293°
2026-04-20 05:30 37.54520 -122.19647 2899 ft 216 kts 293°
2026-04-20 05:30 37.55214 -122.21257 2625 ft 198 kts 293°
2026-04-20 05:30 37.55861 -122.22765 2372 ft 186 kts 292°
2026-04-20 05:30 37.56456 -122.24159 2141 ft 169 kts 292°
2026-04-20 05:31 37.56993 -122.25419 1920 ft 156 kts 292°
2026-04-20 05:31 37.57492 -122.26598 1711 ft 151 kts 292°
2026-04-20 05:31 37.57985 -122.27771 1489 ft 150 kts 292°
2026-04-20 05:31 37.58486 -122.28959 1260 ft 150 kts 292°
2026-04-20 05:32 37.58973 -122.30122 1036 ft 148 kts 292°
2026-04-20 05:32 37.59464 -122.31293 823 ft 147 kts 293°
2026-04-20 05:32 37.59950 -122.32445 600 ft 147 kts 295°
2026-04-20 05:32 37.60444 -122.33594 429 ft 148 kts 295°
2026-04-20 05:33 37.60939 -122.34757 238 ft 146 kts 295°
2026-04-20 05:33 37.61421 -122.35884 55 ft 144 kts 295°
2026-04-20 05:33 37.61864 -122.36933 23 ft 113 kts 297°
2026-04-20 05:33 37.62160 -122.37641 30 ft 69 kts 297°
2026-04-20 05:34 37.62322 -122.38030 35 ft 31 kts 296°
2026-04-20 05:34 37.62302 -122.38242 36 ft 21 kts 225°
2026-04-20 05:34 37.62120 -122.38357 38 ft 10 kts 262°
2026-04-20 05:35 37.62147 -122.38460 38 ft 14 kts 296°
2026-04-20 05:35 37.62198 -122.38582 37 ft 16 kts 295°
2026-04-20 05:35 37.62250 -122.38714 37 ft 16 kts 298°
2026-04-20 05:35 37.62306 -122.38843 36 ft 16 kts 300°
2026-04-20 05:36 37.62340 -122.38975 35 ft 15 kts 258°
2026-04-20 05:36 37.62309 -122.39098 35 ft 12 kts 251°
2026-04-20 05:36 37.62268 -122.39177 36 ft 10 kts 221°
2026-04-20 05:36 37.62210 -122.39222 36 ft 9 kts 206°
2026-04-20 05:37 37.62147 -122.39262 37 ft 10 kts 207°
2026-04-20 05:37 37.62082 -122.39305 37 ft 10 kts 208°
2026-04-20 05:37 37.62022 -122.39322 38 ft 8 kts 155°
2026-04-20 05:37 37.61980 -122.39256 38 ft 10 kts 118°
2026-04-20 05:38 37.61950 -122.39181 39 ft 6 kts 118°
2026-04-20 05:38 37.61939 -122.39162 39 ft 1 kts 149°
2026-04-20 05:38 37.61910 -122.39157 39 ft 6 kts 182°
2026-04-20 05:38 37.61877 -122.39172 39 ft 4 kts 207°
2026-04-20 05:39 37.61869 -122.39177 39 ft 0 kts 207°